This is the latest recevied weather packets stored in our database for station/object KC8PTQ. If no packets are shown the sender has not sent any weather packets the latest 10 day(s).
| Time | Temp. | Humidity | Pressure | Rain* | Wind** | Luminosity | Snow |
|---|---|---|---|---|---|---|---|
| 1778181358 | 12.78° C | 49% | 1013.6 hPa | 0 mm | - | 141 W/m² | - |
| 1778181056 | 13.33° C | 48% | 1013.5 hPa | 0 mm | - | 121 W/m² | - |
| 1778180753 | 13.33° C | 50% | 1013.6 hPa | 0 mm | - | 598 W/m² | - |
| 1778180452 | 13.89° C | 46% | 1013.7 hPa | 0 mm | - | 645 W/m² | - |
| 1778180150 | 13.33° C | 48% | 1013.7 hPa | 0 mm | - | 723 W/m² | - |
| 1778179846 | 13.33° C | 47% | 1013.6 hPa | 0 mm | - | 158 W/m² | - |
| 1778179544 | 12.78° C | 51% | 1013.7 hPa | 0 mm | - | 694 W/m² | - |
| 1778179242 | 13.33° C | 48% | 1013.6 hPa | 0 mm | - | 144 W/m² | - |
| 1778178937 | 12.78° C | 46% | 1013.5 hPa | 0 mm | - | 152 W/m² | - |
| 1778178635 | 13.33° C | 45% | 1013.8 hPa | 0 mm | - | 126 W/m² | - |
| 1778178331 | 12.78° C | 52% | 1013.6 hPa | 0 mm | - | 366 W/m² | - |
| 1778178027 | 13.33° C | 50% | 1013.7 hPa | 0 mm | - | 158 W/m² | - |
| 1778177724 | 13.89° C | 52% | 1013.7 hPa | 0 mm | - | 111 W/m² | - |
| 1778177420 | 13.89° C | 46% | 1013.7 hPa | 0 mm | - | 146 W/m² | - |
| 1778177117 | 13.33° C | 48% | 1013.9 hPa | 0 mm | - | 453 W/m² | - |
| 1778176814 | 13.89° C | 47% | 1013.8 hPa | 0 mm | - | 159 W/m² | - |
| 1778176510 | 13.33° C | 48% | 1013.8 hPa | 0 mm | - | 462 W/m² | - |
| 1778176208 | 13.89° C | 47% | 1014 hPa | 0 mm | - | 157 W/m² | - |
| 1778175905 | 12.78° C | 48% | 1014 hPa | 0 mm | - | 269 W/m² | - |
| 1778175602 | 12.78° C | 50% | 1013.8 hPa | 0 mm | - | 155 W/m² | - |
| 1778175299 | 12.78° C | 49% | 1014 hPa | 0 mm | - | 154 W/m² | - |
| 1778174996 | 13.33° C | 46% | 1014.1 hPa | 0 mm | - | 333 W/m² | - |
| 1778174692 | 13.89° C | 47% | 1014.1 hPa | 0 mm | - | 135 W/m² | - |
| 1778174389 | 13.89° C | 46% | 1013.9 hPa | 0 mm | - | 263 W/m² | - |
| 1778174084 | 13.33° C | 48% | 1014 hPa | 0 mm | - | 424 W/m² | - |
* Rain latest hour (hover to see other rain measurements)
** Current wind speed in m/s (hover to see current wind gust speed)